User: anonymous   Login
Location: McDonald Observatory
(30.6717°N, 104.0221°W)
Time: 20:50:46
(UTC-05:00)
Language:

Cosmos 1484 Rocket - Orbit

View from above orbital plane
View from above orbital plane
View from above satellite
View from above satellite

Ground track
Ground track

The orbit data is extracted from the following two-line orbital elements,

1 14208U 83075B   16244.49385323  .00000510  00000-0  34561-4 0  9991
2 14208  97.3529 260.8634 0041106  52.0171 308.4760 15.10043304803784
Epoch (UTC): 31 August 2016 11:51:08
Eccentricity: 0.0041106
inclination: 97.3529°
perigee height: 507 km
apogee height: 564 km
right ascension of ascending node: 260.8634°
argument of perigee: 52.0171°
revolutions per day: 15.10043304
mean anomaly at epoch: 308.4760°
orbit number at epoch: 80378

The dashed part of the orbit path shows where the satellite is in the earth's shadow,  

DLR